KUIPER-00134 (65960 NORAD) Tracking and Keplerian Element Data

This shows tracking and keplerian element data for the satellite.

Feedback or suggestion? Click here.




ElementValue
Catalog65960
NameKUIPER-00134
Epoch Orbit1155
Epoch Day354.14073355
Epoch Year2025
RAAN344.9009
Inclination51.8776
Eccentricity0.0011795
Argument of Perigee282.2829
Mean Anonmoly77.6837
Mean Motion15.38205693
Decay Rate0.01579114
L11 65960U 25228P 25354.14073355 .01579114 00000+0 37630-1 0 9999
L22 65960 51.8776 344.9009 0011795 282.2829 77.6837 15.38205693 11559



Live tracking and technical data element details for KUIPER-00134 (NORAD 65960). KUIPER-00134 can be tracked NOW for your location showing map with azimuth and elevation plus other details from your city location.







IsCatalogInMostPopularTable: catalog: 65960, numindb: 5
Update: records affected: 1



GetName: 65960 KUIPER-00134

Hit Count: updated at: Sat, 11 Apr 2026 20:11:26 GMT